TimeMST,TemperatureF,Dew PointF,Humidity,Sea Level PressureIn,VisibilityMPH,Wind Direction,Wind SpeedMPH,Gust SpeedMPH,PrecipitationIn,Events,Conditions,WindDirDegrees,DateUTC
12:53 AM,18.0,16.0,92,30.10,10.0,Calm,Calm,-,N/A,,Clear,0,2012-11-28 07:53:00
1:53 AM,17.1,15.1,92,30.09,10.0,SE,3.5,-,N/A,,Clear,130,2012-11-28 08:53:00
2:53 AM,19.0,16.0,88,30.08,10.0,Calm,Calm,-,N/A,,Clear,0,2012-11-28 09:53:00
3:53 AM,18.0,15.1,88,30.09,10.0,Calm,Calm,-,N/A,,Clear,0,2012-11-28 10:53:00
5:53 AM,19.0,16.0,88,30.09,10.0,Calm,Calm,-,N/A,,Clear,0,2012-11-28 12:53:00
6:53 AM,17.1,14.0,88,30.10,10.0,Calm,Calm,-,N/A,,Clear,0,2012-11-28 13:53:00
7:53 AM,21.0,18.0,88,30.10,10.0,Calm,Calm,-,N/A,,Clear,0,2012-11-28 14:53:00
8:53 AM,21.0,18.0,88,30.11,10.0,NNE,3.5,-,N/A,,Scattered Clouds,30,2012-11-28 15:53:00
9:53 AM,25.0,21.0,85,30.10,10.0,ENE,3.5,-,N/A,,Clear,70,2012-11-28 16:53:00
10:53 AM,28.0,24.1,85,30.10,10.0,NE,3.5,-,N/A,,Clear,40,2012-11-28 17:53:00
11:53 AM,32.0,25.0,75,30.08,10.0,ENE,4.6,-,N/A,,Clear,60,2012-11-28 18:53:00
12:53 PM,35.1,26.1,70,30.07,10.0,NNE,6.9,-,N/A,,Clear,30,2012-11-28 19:53:00
1:53 PM,35.1,26.1,70,30.04,10.0,East,4.6,-,N/A,,Clear,80,2012-11-28 20:53:00
2:53 PM,34.0,26.1,73,30.01,10.0,NE,5.8,-,N/A,,Clear,50,2012-11-28 21:53:00
3:53 PM,32.0,26.1,79,30.01,10.0,NNE,5.8,-,N/A,,Clear,20,2012-11-28 22:53:00
4:53 PM,28.9,24.1,82,30.00,10.0,ENE,8.1,-,N/A,,Clear,60,2012-11-28 23:53:00
5:53 PM,28.0,24.1,85,29.99,10.0,ENE,11.5,-,N/A,,Clear,60,2012-11-29 00:53:00
6:53 PM,27.0,23.0,85,29.99,10.0,ENE,15.0,-,N/A,,Clear,70,2012-11-29 01:53:00
7:53 PM,25.0,21.9,88,29.96,10.0,ENE,18.4,-,N/A,,Clear,70,2012-11-29 02:53:00
8:53 PM,24.1,19.9,84,29.96,10.0,ENE,17.3,-,N/A,,Clear,60,2012-11-29 03:53:00
9:33 PM,23.0,19.4,86,29.84,10.0,ENE,16.1,-,N/A,,Partly Cloudy,60,2012-11-29 04:33:00
9:50 PM,23.0,19.4,86,29.85,10.0,ENE,16.1,-,N/A,,Mostly Cloudy,60,2012-11-29 04:50:00
9:53 PM,23.0,19.9,88,29.96,10.0,ENE,16.1,-,N/A,,Mostly Cloudy,70,2012-11-29 04:53:00
10:53 PM,21.9,19.0,89,29.95,10.0,ENE,18.4,-,N/A,,Overcast,70,2012-11-29 05:53:00
11:53 PM,21.9,19.0,89,29.94,10.0,ENE,15.0,-,N/A,,Overcast,60,2012-11-29 06:53:00